IkaScore Players IkaScore Alliances






Support IkaScore

Please donate to
me@ikascore.com

using Skrill
Brazil Eunomia
Ikariam players: 354
AverageTotal
Pontuação total: 1306406 462467620
Mestres de Alvenaria: 1090895 386176963
Níveis de construção: 2087 738810
Cientistas: 196046 69400423
Níveis de pesquisa: 260 91960
Generais: 7154 2532398
Ouro: 373195 2129452868
Pontos ofensivos: 579 205125
Pontos de defesa: 565 199985
Pontuação comercial: 1034 365985
Recursos: 832446 294685848
doar: 79270 28061477
Score vulnerability: 243717 86275854
Gold vulnerability: 4365 1545148
Population: 12310 4357836
Donations to score: 341616 120932121

Digg! Delicious! IkaScore homepage
Players - Pontuação total
  per page  Next page >>
Rank Ikariam player Alliance Score Type Score Updated
1 DAARTH VADER -WAR- Pontuação total 18942407 17/01 03:06
2 Reformista Devastador -WAR- Pontuação total 16036110 17/01 03:06
Support IkaScore

Please donate to    me@ikascore.com    using Skrill
3 GrimEyes -WAR- Pontuação total 15252620 17/01 03:06
4 Reformista - Lost - -WAR- Pontuação total 13811597 17/01 03:06
5 Helper -WAR- Pontuação total 13046347 17/01 03:06
6 Thiiago Sousa -WAR- Pontuação total 12513699 17/01 03:06
7 Apóstolo de Zeus El-Matador -WAR- Pontuação total 10510776 17/01 03:06
8 _sophia Pontuação total 9217301 17/01 03:06
9 Mário Júnior FLU Pontuação total 7241461 17/01 03:06
10 Luan Nascimento Pontuação total 6962694 17/01 03:06
11 Big cheese -ISN- Pontuação total 6709670 17/01 03:06
12 Pekena Pontuação total 6281588 17/01 03:06
13 Atacadista Dewa Kematian -WAR- Pontuação total 5149843 17/01 03:06
14 Pedromal -WAR- Pontuação total 4931794 17/01 03:06
15 Campeão de Aquiles Hannibal Pontuação total 4595920 17/01 03:06
16 nabuchadresar MINI Pontuação total 4565384 17/01 03:06
17 Gênio ncampelletti 7SEAS Pontuação total 4503852 17/01 03:06
18 Lucam 10TC -WAR- Pontuação total 4422078 17/01 03:06
19 Lord Rato -WAR- Pontuação total 3925418 17/01 03:06
20 Andy55 7SEAS Pontuação total 3901820 17/01 03:06
21 Embaixador Henrique100 -ISN- Pontuação total 3874709 17/01 03:06
22 livassan07 Ø_Ø Pontuação total 3808359 17/01 03:06
23 Rei dos Piratas TEMPLARIO Pontuação total 3704237 17/01 03:06
24 Amante das Artes The SanT Ø_Ø Pontuação total 3664335 17/01 03:06
25 Campeão de Hércules Xeqµe -WAR- Pontuação total 3652990 17/01 03:06
26 Root -ϟ- Pontuação total 3644759 17/01 03:06
27 Campeão de Aquiles rairodrigues -WAR- Pontuação total 3625529 17/01 03:06
28 erikeac -WAR- Pontuação total 3428185 17/01 03:06
29 Lord Mestre -WAR- Pontuação total 3390665 17/01 03:06
30 HAMATE Pontuação total 3332104 17/01 03:06
31 LoI -ϟ- Pontuação total 3302976 17/01 03:06
32 Caçador de Pontos C-Johnny Depp -ISN- Pontuação total 3264946 17/01 03:06
33 Caçador de Pontos maxs -ϟ- Pontuação total 3237336 17/01 03:06
34 Tesoureiro do Rei Midas Lord_wolver -WAR- Pontuação total 3168428 17/01 03:06
35 Patrono Ω Capoeira Ω 7SEAS Pontuação total 3102486 17/01 03:06
36 Martelo dos Bárbaros Thanatus Pontuação total 3101557 17/01 03:06
37 Cachorro Loko Pontuação total 3034599 17/01 03:06
38 Campeão de Aquiles Radamanthys -WAR- Pontuação total 3027555 17/01 03:06
39 Lorde da Pedreira LuanMrts -ϟ- Pontuação total 3008156 17/01 03:06
40 jsilva3000 -WAR- Pontuação total 2933233 17/01 03:06
41 Percy Jackson -ISN- Pontuação total 2932409 17/01 03:06
42 Mentor -MEDEOTTO- -ISN- Pontuação total 2855622 17/01 03:06
43 o guerreiro Pontuação total 2850735 17/01 03:06
44 Chefe de Cozinha Becarefull -ϟ- Pontuação total 2795084 17/01 03:06
45 rodriguinho08 7SEAS Pontuação total 2765058 17/01 03:06
46 Sísifo Jaunzim Ø_Ø Pontuação total 2719712 17/01 03:06
47 chico zé FLU Pontuação total 2706551 17/01 03:06
48 Caçador de Pontos muido -ISN- Pontuação total 2699013 17/01 03:06
49 Marushi -WAR- Pontuação total 2689315 17/01 03:06
50 Amante das Artes Nefa Pontuação total 2623687 17/01 03:06
51 Rei do Negócio de Armas General Killer -WAR- Pontuação total 2596933 17/01 03:06
52 Amante das Artes henrryky -ISN- Pontuação total 2589794 17/01 03:06
53 Sísifo H M E M N O N Ø_Ø Pontuação total 2583875 17/01 03:06
54 Necrox MINI Pontuação total 2539915 17/01 03:06
55 Mentor HaDDeR N O Pontuação total 2530292 17/01 03:06
56 Gênio Who75 -ISN- Pontuação total 2484149 17/01 03:06
57 Guardião da Torre de Marfim Muribeca -ϟ- Pontuação total 2463443 17/01 03:06
58 Pirata lelo1 -ISN- Pontuação total 2455463 17/01 03:06
59 Antony Pontuação total 2427366 17/01 03:06
60 kenia -ISN- Pontuação total 2410013 17/01 03:06
61 mizuho -WAR- Pontuação total 2381046 17/01 03:06
62 Tesoureiro do Rei Midas CrazyDog 7SEAS Pontuação total 2337357 17/01 03:06
63 Embaixador HUNTER Pontuação total 2327860 17/01 03:06
64 Amante das Artes Ruffy O Grande -WAR- Pontuação total 2284504 17/01 03:06
65 Presidente da Câmara TBKs_LORDÃO 7SEAS Pontuação total 2244711 17/01 03:06
66 VLAD_DRACULL 7SEAS Pontuação total 2216478 17/01 03:06
67 F-I-V-E - 0 -ISN- Pontuação total 2171395 17/01 03:06
68 Maratonista Corisco -WAR- Pontuação total 2147334 17/01 03:06
69 --CONAN-- Pontuação total 2131764 17/01 03:06
70 Rogan NFR Pontuação total 2104380 17/01 03:06
71 Jack The Ripper Pontuação total 2067970 17/01 03:06
72 Caçador de Pontos JUSTICEIRO 35TC -WAR- Pontuação total 2064641 17/01 03:06
73 Capitão Pirata belinha77 -ISN- Pontuação total 2029909 17/01 03:06
74 Maratonista bidu-vinicius Pontuação total 2026778 17/01 03:06
75 Dobis Pontuação total 1988279 17/01 03:06
76 Campeão de Hércules Tigre Unipiano -WAR- Pontuação total 1938989 17/01 03:06
77 Presidente da Câmara Acer Pontuação total 1909021 17/01 03:06
78 Rampage Pontuação total 1845487 17/01 03:06
79 Caçador de Pontos Gaúcho Pontuação total 1808179 17/01 03:06
80 Patrono Mionzeraa 10 TC Pontuação total 1804912 17/01 03:06
81 Wizard -ϟ- Pontuação total 1757302 17/01 03:06
82 mastercode Pontuação total 1745703 17/01 03:06
83 Maratonista Teteu Pontuação total 1730294 17/01 03:06
84 BRYAN BOLANHO 7SEAS Pontuação total 1685241 17/01 03:06
85 Gênio AnderS Pontuação total 1681887 17/01 03:06
86 Campeão de Hércules SC_ Pontuação total 1674664 17/01 03:06
87 Patrono McArthur Pontuação total 1647568 17/01 03:06
88 Caçador de Pontos ABU SALAM -ISN- Pontuação total 1624735 17/01 03:06
89 Detetive tempestade -ISN- Pontuação total 1619381 17/01 03:06
90 Gênio spart -ϟ- Pontuação total 1593923 17/01 03:06
91 Capitão Pirata Freellgar -WAR- Pontuação total 1591974 17/01 03:06
92 Caçador de Pontos GIGANTE_1914 7SEAS Pontuação total 1587670 17/01 03:06
93 Gilberto30 -ISN- Pontuação total 1577502 17/01 03:06
94 Patrono hsz N O Pontuação total 1563884 17/01 03:06
95 Patrono Orpheu 7SEAS Pontuação total 1558529 17/01 03:06
96 Campeão de Hércules SHOWKANZ -ISN- Pontuação total 1547171 17/01 03:06
97 Caçador de Pontos ATHOS -ISN- Pontuação total 1530315 17/01 03:06
98 Amante das Artes Bindy -ISN- Pontuação total 1473704 17/01 03:06
99 bravo04 Pontuação total 1473384 17/01 03:06
100 nortongrey N O Pontuação total 1444823 17/01 03:06
  per page  Next page >>

Copyright © 2010 IkaScore.com All Rights Reserved | Disclaimer